Powrót do katalogu

FENGYUN 1C DEB

AktywnySSO
NORAD 32414·DEBRIS·🇨🇳 China

Wystrzelony May 10, 1999 z Taiyuan Satellite Launch Center

Loading…

Następne Przeloty (najbliższe 24 godziny)

TLE

ŚwieżeSource: Space-Track

Epoka: Sep 13, 2026, 11:30 UTC

1 32414U 99025DAA 26256.47942022  .00001444  00000-0  69713-3 0  9992
2 32414  98.8406 331.6899 0043898 289.7366  69.9078 14.19701231976294

Śledź FENGYUN 1C DEB w czasie rzeczywistym z AllMySat

Download on the App Store